Home   Weather   Charleston   Past weeks
Flag for USA

Past Weather in Charleston, West Virginia, USA — Yesterday and Last 2 Weeks

Now
58 °F

Rain. Mostly cloudy.


Feels Like: 56 °F
Forecast: 59 / 47 °F
Wind: 8 mph from South

Location: Yeager Airport

Current Time: Oct 16, 2019 at 6:13:33 am

Latest Report: Oct 16, 2019 at 4:54 am


Visibility: 10 mi

Pressure: 29.76 "Hg

Humidity: 75%

Dew Point: 50 °F

Location of CharlestonLocation

Past Weather in Charleston — Graph

°F

Charleston Temperature Yesterday

Maximum temperature yesterday: 77 °F (at 2:54 pm)
Minimum temperature yesterday: 39 °F (at 6:54 am)
Average temperature yesterday: 55 °F

High & Low Weather Summary for the Past Weeks

 TemperatureHumidityPressure
High94 °F (Oct 3, 1:54 pm)100% (Oct 13, 3:54 am)30.23 "Hg (Oct 13, 3:54 am)
Low38 °F (Oct 13, 1:54 am)18% (Oct 15, 4:54 pm)29.74 "Hg (Oct 16, 3:54 am)
Average63 °F71%30.08 "Hg
* Reported Oct 1 4:54 am — Oct 16 4:54 am, Charleston. Weather by CustomWeather, © 2019

Note: Actual official high and low records may vary slightly from our data, if they occured in-between our weather recording intervals... More about our weather records

Advertising

Charleston Weather History for the Previous 24 Hours

Scroll right to see more
 ConditionsComfort  
Time TempWeatherWind HumidityBarometerVisibility
4:54 am
Wed, Oct 16
58 °FRain. Mostly cloudy.8 mph75%29.76 "Hg10 mi
3:54 am56 °FOvercast.No wind77%29.74 "Hg10 mi
2:54 am56 °FMostly cloudy.No wind67%29.78 "Hg10 mi
1:54 am55 °FPassing clouds.No wind72%29.81 "Hg10 mi
12:54 am55 °FPassing clouds.No wind69%29.84 "Hg10 mi
11:54 pm
Tue, Oct 15
54 °FPassing clouds.3 mph74%29.86 "Hg10 mi
10:54 pm55 °FPassing clouds.No wind74%29.88 "Hg10 mi
9:54 pm56 °FClear.No wind65%29.88 "Hg10 mi
8:54 pm58 °FClear.No wind58%29.90 "Hg10 mi
7:54 pm61 °FPassing clouds.No wind54%29.90 "Hg10 mi
6:54 pm66 °FPassing clouds.No wind43%29.90 "Hg10 mi
5:54 pm74 °FSunny.3 mph21%29.91 "Hg10 mi
4:54 pm77 °FSunny.6 mph18%29.92 "Hg10 mi
3:54 pm77 °FSunny.7 mph21%29.93 "Hg10 mi
2:54 pm77 °FSunny.8 mph21%29.96 "Hg10 mi
1:54 pm74 °FSunny.No wind29%30.00 "Hg10 mi
12:54 pm72 °FSunny.5 mph31%30.04 "Hg10 mi
11:54 am67 °FSunny.No wind49%30.08 "Hg10 mi
10:54 am56 °FSunny.No wind67%30.10 "Hg10 mi
9:54 am49 °FSunny.3 mph77%30.12 "Hg10 mi
8:54 am41 °FPassing clouds.No wind96%30.13 "Hg7 mi
8:22 am40 °FFog.No wind97%30.14 "Hg5 mi
7:54 am39 °FFog.No wind96%30.14 "Hg1 mi
7:15 am39 °FFog.No wind96%30.14 "Hg1 mi
6:54 am39 °FPassing clouds.No wind96%30.14 "Hg10 mi
Weather by CustomWeather, © 2019

See weather overview